Trenton, NJ

12:39 AM EDT on June 25, 2018 (GMT -0400)
Trenton Mercer

Weather History for KTTN - November, 2017

Change the Weather History Date:

Tuesday, November 14, 2017

  Actual Average Record
Temperature  
Mean Temperature 40 °F 46 °F  
Max Temperature 47 °F 55 °F 72 °F (1993)
Min Temperature 32 °F 38 °F 16 °F (1986)
Degree Days  
Heating Degree Days 25 19  
Month to date heating degree days 254 235  
Since 1 July heating degree days 448 632  
Cooling Degree Days 0 0  
Month to date cooling degree days 2 0  
Year to date cooling degree days 1151 965  
Moisture  
Dew Point 32 °F    
Average Humidity 76    
Maximum Humidity 92    
Minimum Humidity 60    
Precipitation  
Precipitation 0.00 in 0.09 in 1.89 in (1972)
Month to date precipitation 0.90 1.45  
Year to date precipitation 39.15 40.88  
Sea Level Pressure  
Sea Level Pressure 30.29 in    
Wind  
Wind Speed 5 mph (North)    
Max Wind Speed 13 mph    
Max Gust Speed 16 mph    
Visibility 10 miles    
Events      
T = Trace of Precipitation, MM = Missing Value Source: NWS Daily Summary

Daily Weather History Graph

Daily Weather History Graph

Search for Another Location

Airport or City:

Astronomy

Nov. 14, 2017 Rise Set
Actual Time 6:44 AM EST 4:42 PM EST
Civil Twilight 6:15 AM EST 5:11 PM EST
Nautical Twilight 5:42 AM EST 5:44 PM EST
Astronomical Twilight 5:10 AM EST 6:16 PM EST
Moon 2:41 AM EST (11/14) 3:06 PM EST (11/14)
Length of Visible Light 10h 56m
Length of Day
9h 58m
Waning Crescent, 14% of the Moon is Illuminated
Nov 14
Waning Crescent
Nov 18
New
Nov 26
First Quarter
Dec 3
Full
Dec 10
Last Quarter

Hourly Weather History & Observations

Time (EST) Temp. Windchill Dew Point Humidity Pressure Visibility Wind Dir Wind Speed Gust Speed Precip Events Conditions
12:53 AM 36.0 °F 31.1 °F 30.9 °F 82% 30.28 in 10.0 mi NNW 5.8 mph - N/A   Clear
1:53 AM 33.1 °F 30.0 °F 30.0 °F 89% 30.29 in 10.0 mi NNW 3.5 mph - N/A   Clear
2:53 AM 33.1 °F 30.0 °F 30.0 °F 89% 30.29 in 9.0 mi NW 3.5 mph - N/A   Clear
3:53 AM 33.1 °F 27.7 °F 28.9 °F 85% 30.29 in 10.0 mi NNW 5.8 mph - N/A   Clear
4:53 AM 34.0 °F 29.8 °F 28.9 °F 82% 30.30 in 10.0 mi NNW 4.6 mph - N/A   Overcast
5:53 AM 35.1 °F 31.0 °F 30.0 °F 82% 30.30 in 10.0 mi NW 4.6 mph - N/A   Overcast
6:53 AM 35.1 °F - 30.0 °F 82% 30.32 in 10.0 mi Calm Calm - N/A   Overcast
7:53 AM 36.0 °F - 32.0 °F 86% 30.33 in 9.0 mi Calm Calm - N/A   Overcast
8:53 AM 39.9 °F 37.8 °F 33.1 °F 77% 30.34 in 10.0 mi NNW 3.5 mph - N/A   Overcast
9:53 AM 43.0 °F 38.8 °F 35.1 °F 74% 30.33 in 10.0 mi North 6.9 mph - N/A   Overcast
10:53 AM 45.0 °F 39.3 °F 34.0 °F 65% 30.32 in 10.0 mi North 11.5 mph - N/A   Overcast
11:53 AM 46.0 °F 42.5 °F 34.0 °F 63% 30.30 in 10.0 mi North 6.9 mph - N/A   Overcast
12:53 PM 46.0 °F 41.9 °F 34.0 °F 63% 30.28 in 10.0 mi NNE 8.1 mph - N/A   Overcast
1:53 PM 46.9 °F - 34.0 °F 61% 30.26 in 10.0 mi NNE 8.1 mph - N/A   Overcast
2:53 PM 46.9 °F - 34.0 °F 61% 30.26 in 10.0 mi NNE 6.9 mph - N/A   Overcast
3:53 PM 46.9 °F - 34.0 °F 61% 30.26 in 10.0 mi North 6.9 mph - N/A   Overcast
4:53 PM 46.0 °F 44.8 °F 34.0 °F 63% 30.26 in 10.0 mi North 3.5 mph - N/A   Overcast
5:53 PM 44.1 °F 42.5 °F 35.1 °F 71% 30.27 in 10.0 mi NE 3.5 mph - N/A   Overcast
6:53 PM 45.0 °F 42.6 °F 34.0 °F 65% 30.27 in 10.0 mi NNE 4.6 mph - N/A   Overcast
7:53 PM 43.0 °F 40.3 °F 33.1 °F 68% 30.28 in 10.0 mi NNE 4.6 mph - N/A   Overcast
8:53 PM 41.0 °F 38.0 °F 33.1 °F 73% 30.28 in 10.0 mi North 4.6 mph - N/A   Clear
9:53 PM 39.0 °F 35.7 °F 32.0 °F 76% 30.28 in 10.0 mi NNE 4.6 mph - N/A   Partly Cloudy
10:53 PM 39.9 °F 35.1 °F 32.0 °F 73% 30.27 in 10.0 mi NNE 6.9 mph - N/A   Overcast
11:53 PM 39.9 °F 35.8 °F 30.9 °F 70% 30.28 in 10.0 mi North 5.8 mph - N/A   Overcast